Location: Fensholt
(55.9856°N, 10.0808°E)
Time: 23:50:07
(UTC+00:00)

Cosmos 1400 Rocket - Visible Passes

Search period start: 01 October 2020 00:00
Search period end: 11 October 2020 00:00
Orbit: 523 x 567 km, 81.2° (Epoch: 01 October)

Date Brightness Start Highest point End Pass type
(mag) Time Alt. Az. Time Alt. Az. Time Alt. Az.
01 Oct 5.9 21:43:07 11° NNE 21:43:07 11° NNE 21:43:18 10° NNE visible
02 Oct 6.0 21:37:10 11° NNE 21:37:10 11° NNE 21:37:19 10° NNE visible
03 Oct 6.0 21:31:14 11° NNE 21:31:14 11° NNE 21:31:20 10° NNE visible
04 Oct 6.0 21:25:17 10° N 21:25:17 10° N 21:25:20 10° N visible
05 Oct 6.0 21:19:19 10° N 21:19:19 10° N 21:19:20 10° N visible
10 Oct 5.7 05:02:26 10° NNE 05:05:14 17° NE 05:08:01 10° E visible
